TDRS 11

Last updated on Jan. 22, 2020, 4:36 a.m. UTC

1 39070U 13004A   20021.71687530  .00000080  00000-0  00000+0 0  9996
2 39070   4.0473 331.0638 0003673   1.8380 231.4967  1.00278474 25532
UTC
Height (km)
Latitude
Longitude
Inclination
Orbital Period
UTC large
Height (km)
Speed (km/s)
/
Latitude / Longitude
Inclination (degrees)
Orbital Period (minutes)
Azimuth
Elevation
Range (km)
Doppler Factor
iOS Compass Heading
iOS Angle

Next 30 passes for location: Hong Kong

Rise time Rise Azimuth (degrees) Set time Set Azimuth (degrees) Duration Max altitude (degrees)

No matching passes for this satellites